DW6452 Weather Reports


Display with metric or nautical units.
time (UTC)temp
F
wind
direction
speed
MPH
gust
MPH
rain 1hr
in
rain 24hr
in
rain mn
in
humidity
%
barometer
mb
20260507131058 48 13 3.0 5.0 0.00 0.00 0.00 91 1018.9
20260507122657 48 12 3.0 4.0 0.00 0.00 0.00 91 1018.9
20260507113157 49 5 4.0 6.0 0.00 0.00 0.00 90 1019.3
20260507105858 49 11 4.0 6.0 0.00 0.00 0.00 89 1019.3
20260507084656 50 16 5.0 8.0 0.00 0.00 0.00 89 1020.0
20260507081357 51 360 4.0 6.0 0.00 0.00 0.00 89 1019.9
20260507080256 51 355 3.0 5.0 0.00 0.00 0.00 89 1019.9
20260507075157 51 355 3.0 5.0 0.00 0.00 0.00 89 1019.9
20260507074056 51 355 3.0 5.0 0.00 0.00 0.00 89 1019.9
20260507070756 51 330 2.0 4.0 0.00 0.00 0.00 89 1019.8
20260507065656 51 322 2.0 4.0 0.00 0.00 0.00 89 1019.9
20260507064556 51 319 3.0 5.0 0.00 0.00 0.00 88 1019.9
20260507062356 52 325 2.0 4.0 0.00 0.00 0.00 88 1019.9
20260507061256 52 324 3.0 6.0 0.00 0.00 0.00 87 1019.9
20260507060156 52 296 0.0 4.0 0.00 0.00 0.00 87 1019.9
20260507055056 53 234 1.0 3.0 0.00 0.00 0.00 87 1019.9
20260507052856 53 232 0.0 0.0 0.00 0.00 0.00 86 1019.9
20260507051756 53 232 1.0 2.0 0.00 0.00 0.00 87 1020.0
20260507050656 53 232 1.0 2.0 0.00 0.00 0.00 86 1020.0
20260507045556 53 232 1.0 3.0 0.00 0.00 0.00 86 1020.0
20260507042257 54 205 2.0 3.0 0.00 0.00 0.00 85 1019.8
20260507035000 55 231 3.0 6.0 0.00 0.00 0.00 84 1019.5
20260507033857 55 217 4.0 6.0 0.00 0.00 0.00 83 1019.2
20260507032757 56 223 3.0 6.0 0.00 0.00 0.00 82 1019.1
20260507031658 57 269 3.0 7.0 0.00 0.00 0.00 81 1019.1
20260507030557 58 275 4.0 8.0 0.00 0.00 0.00 81 1019.1
20260507025500 59 261 4.0 7.0 0.00 0.00 0.00 80 1019.0
20260507024358 60 290 4.0 9.0 0.00 0.00 0.00 78 1018.9
20260507023256 61 259 6.0 9.0 0.00 0.00 0.00 77 1018.9
20260507022156 62 271 6.0 12.0 0.00 0.00 0.00 75 1018.9
20260507020001 64 317 2.0 5.0 0.00 0.00 0.00 76 1018.9
20260507014856 63 283 3.0 7.0 0.00 0.00 0.00 74 1018.9
20260507013756 63 5 3.0 4.0 0.00 0.00 0.00 75 1018.9
20260507012656 63 306 1.0 3.0 0.00 0.00 0.00 75 1018.9
20260507011556 64 306 2.0 4.0 0.00 0.00 0.00 73 1018.9
20260507010500 64 296 4.0 6.0 0.00 0.00 0.00 74 1019.0
20260507005356 64 267 4.0 7.0 0.00 0.00 0.00 70 1019.0
20260507004256 65 250 4.0 9.0 0.00 0.00 0.00 72 1019.1
20260507003156 66 173 4.0 8.0 0.00 0.00 0.00 74 1019.1
20260507002056 65 355 4.0 6.0 0.00 0.00 0.00 74 1019.0
20260506234756 63 267 6.0 11.0 0.00 0.00 0.00 74 1019.1
20260506233656 64 316 6.0 11.0 0.00 0.00 0.00 74 1019.1
20260506232556 64 306 4.0 11.0 0.00 0.00 0.00 75 1019.2
20260506230356 64 253 5.0 12.0 0.00 0.00 0.00 76 1019.2
20260506225256 64 322 4.0 9.0 0.00 0.00 0.00 77 1019.2
20260506224156 63 294 7.0 12.0 0.00 0.00 0.00 78 1019.3
20260506223056 63 268 4.0 10.0 0.00 0.00 0.00 78 1019.3
20260506220856 62 278 5.0 10.0 0.00 0.00 0.00 80 1019.6
20260506215756 62 305 5.0 9.0 0.00 0.00 0.00 81 1019.6
20260506214656 61 253 3.0 8.0 0.00 0.00 0.00 79 1019.6
20260506211356 59 323 3.0 8.0 0.00 0.00 0.00 85 1019.7
20260506205156 59 341 5.0 10.0 0.00 0.00 0.00 85 1020.0
20260506204056 59 331 4.0 8.0 0.00 0.00 0.00 85 1020.0
20260506201856 59 261 4.0 8.0 0.00 0.00 0.00 83 1020.1
20260506200756 58 276 1.0 4.0 0.00 0.00 0.00 85 1020.0
20260506195656 57 219 3.0 7.0 0.00 0.00 0.00 86 1020.1
20260506194556 57 224 5.0 11.0 0.00 0.00 0.00 86 1020.0
20260506192356 56 281 2.0 5.0 0.00 0.00 0.00 90 1020.0
20260506191256 55 281 2.0 5.0 0.00 0.00 0.00 91 1020.2
20260506190156 55 338 3.0 6.0 0.00 0.00 0.00 91 1020.2
20260506185056 55 247 3.0 8.0 0.00 0.00 0.00 91 1020.1
20260506184000 54 240 2.0 4.0 0.00 0.00 0.00 91 1020.0
20260506182856 54 274 3.0 7.0 0.00 0.00 0.00 91 1019.9
20260506181756 54 199 1.0 3.0 0.00 0.00 0.00 93 1019.8
20260506180656 53 267 3.0 7.0 0.00 0.00 0.00 92 1019.9
20260506175556 53 321 4.0 8.0 0.00 0.00 0.00 93 1020.0
20260506173356 53 298 6.0 10.0 0.00 0.00 0.00 92 1020.0
20260506172256 54 308 5.0 9.0 0.00 0.00 0.00 92 1019.6
20260506171156 54 292 7.0 10.0 0.00 0.00 0.00 91 1019.6
20260506170056 55 320 6.0 10.0 0.00 0.00 0.00 90 1019.6
20260506163856 54 111 4.0 9.0 0.00 0.00 0.00 95 1019.4
20260506162756 52 98 6.0 11.0 0.00 0.00 0.00 97 1019.0
20260506161656 51 143 7.0 11.0 0.00 0.00 0.00 96 1019.1
20260506160556 50 182 4.0 7.0 0.00 0.00 0.00 95 1019.4
20260506154356 50 267 7.0 11.0 0.00 0.00 0.00 94 1020.0
20260506153256 51 273 5.0 9.0 0.00 0.00 0.00 93 1019.9
20260506152156 51 259 8.0 14.0 0.00 0.00 0.00 92 1019.9
20260506151056 53 294 7.0 11.0 0.00 0.00 0.00 91 1019.6
20260506144856 56 111 2.0 7.0 0.00 0.00 0.00 88 1018.8
20260506143756 55 123 4.0 8.0 0.00 0.00 0.00 90 1018.4
20260506142656 54 143 3.0 5.0 0.00 0.00 0.00 91 1018.7
20260506141556 54 123 4.0 8.0 0.00 0.00 0.00 92 1018.5
20260506140500 53 136 3.0 8.0 0.00 0.00 0.00 93 1018.7